Cherry Point, NC

2:07 AM EDT on August 26, 2016 (GMT -0400)
Cherry Point Marine Corps Air Station

Weather History for KNKT - October, 2012

Change the Weather History Date:

Sunday, October 28, 2012

  Actual Average Record
Temperature  
Mean Temperature 60 °F -  
Max Temperature 64 °F 69 °F 82 °F (2014)
Min Temperature 57 °F 48 °F 37 °F (1997)
Degree Days  
Heating Degree Days 4    
Growing Degree Days 10 (Base 50)    
Moisture  
Dew Point 56 °F    
Average Humidity 86    
Maximum Humidity 94    
Minimum Humidity 72    
Precipitation  
Precipitation 0.81 in - - ()
Sea Level Pressure  
Sea Level Pressure 29.42 in    
Wind  
Wind Speed 25 mph ()    
Max Wind Speed 37 mph    
Max Gust Speed 48 mph    
Visibility 5.3 miles    
Events Rain    
Averages and records for this station are not official NWS values.
T = Trace of Precipitation, MM = Missing Value Source: Averaged Metar Reports

Daily Weather History Graph

Daily Weather History Graph

Search for Another Location

Airport or City:

Trip Planner

Search our weather history database for the weather conditions in past years. The results will help you decide how hot, cold, wet, or windy it might be!

Date:

Astronomy

Oct. 28, 2012 Rise Set
Actual Time 7:25 AM EDT 6:16 PM EDT
Civil Twilight 6:59 AM EDT 6:42 PM EDT
Nautical Twilight 6:29 AM EDT 7:12 PM EDT
Astronomical Twilight 5:59 AM EDT 7:42 PM EDT
Moon 5:33 PM EDT (10/28) 6:17 AM EDT (10/28)
Length of Visible Light 11h 43m
Length of Day
10h 51m
Waxing Gibbous, 99% of the Moon is Illuminated
Oct 28
Waxing Gibbous
Oct 29
Full
Nov 6
Last Quarter
Nov 13
New
Nov 20
First Quarter

Hourly Weather History & Observations

Time (EDT) Temp. Dew Point Humidity Pressure Visibility Wind Dir Wind Speed Gust Speed Precip Events Conditions
12:54 AM 64.0 °F 60.1 °F 87% 29.48 in 7.0 mi North 27.6 mph 38.0 mph 0.04 in Rain Light Rain
1:23 AM 64.4 °F 60.8 °F 88% 29.48 in 5.0 mi North 27.6 mph 36.8 mph 0.02 in Rain Light Rain
1:54 AM 63.0 °F 60.1 °F 90% 29.46 in 4.0 mi North 31.1 mph 42.6 mph 0.08 in Rain Rain
2:17 AM 62.6 °F 60.8 °F 94% 29.47 in 2.5 mi North 27.6 mph 36.8 mph 0.05 in Rain Rain
2:43 AM 62.6 °F 60.8 °F 94% 29.46 in 2.0 mi North 26.5 mph 42.6 mph 0.09 in   Overcast
2:54 AM 63.0 °F 60.1 °F 90% 29.45 in 2.0 mi North 29.9 mph 39.1 mph 0.11 in   Overcast
3:05 AM 62.6 °F 59.0 °F 88% 29.45 in 2.0 mi North 27.6 mph 38.0 mph 0.03 in   Overcast
3:17 AM 62.6 °F 59.0 °F 88% 29.45 in 3.0 mi North 27.6 mph 41.4 mph 0.03 in   Overcast
3:25 AM 62.6 °F 59.0 °F 88% 29.45 in 2.0 mi North 28.8 mph 41.4 mph 0.05 in   Overcast
3:44 AM 62.6 °F 59.0 °F 88% 29.44 in 3.0 mi North 26.5 mph 38.0 mph 0.07 in   Overcast
3:54 AM 63.0 °F 59.0 °F 87% 29.44 in 3.0 mi North 31.1 mph 41.4 mph 0.08 in   Overcast
4:01 AM 62.6 °F 59.0 °F 88% 29.44 in 5.0 mi North 29.9 mph 41.4 mph 0.00 in Rain Light Rain
4:10 AM 62.6 °F 59.0 °F 88% 29.44 in 4.0 mi North 28.8 mph 46.0 mph 0.01 in   Overcast
4:54 AM 63.0 °F 59.0 °F 87% 29.43 in 4.0 mi North 25.3 mph 46.0 mph 0.03 in Rain Light Rain
5:47 AM 62.6 °F 57.2 °F 82% 29.43 in 6.0 mi North 31.1 mph 46.0 mph 0.02 in Rain Light Rain
5:54 AM 62.1 °F 57.9 °F 86% 29.42 in 5.0 mi North 31.1 mph 41.4 mph 0.02 in   Overcast
6:27 AM 62.6 °F 57.2 °F 82% 29.44 in 6.0 mi North 32.2 mph 47.2 mph N/A   Haze
6:38 AM 62.6 °F 57.2 °F 82% 29.44 in 5.0 mi North 32.2 mph 44.9 mph 0.00 in Rain Light Rain
6:46 AM 60.8 °F 57.2 °F 88% 29.44 in 3.0 mi North 29.9 mph 48.3 mph 0.01 in Rain Light Rain
6:50 AM 60.8 °F 57.2 °F 88% 29.44 in 2.5 mi North 36.8 mph 48.3 mph 0.02 in Rain Light Rain
6:54 AM 61.0 °F 57.0 °F 87% 29.43 in 2.5 mi North 29.9 mph 48.3 mph 0.03 in   Overcast
7:01 AM 60.8 °F 55.4 °F 82% 29.45 in 3.0 mi North 24.2 mph 47.2 mph 0.00 in Rain Light Rain
7:54 AM 63.0 °F 54.0 °F 72% 29.43 in 5.0 mi North 29.9 mph 44.9 mph 0.01 in Rain Light Rain
8:54 AM 60.1 °F 55.0 °F 83% 29.44 in 2.5 mi NNE 29.9 mph 46.0 mph 0.02 in Rain Rain
9:11 AM 60.8 °F 55.4 °F 82% 29.45 in 3.0 mi NNE 25.3 mph 39.1 mph 0.04 in Rain Rain
9:54 AM 61.0 °F 57.0 °F 87% 29.44 in 3.0 mi North 21.9 mph 28.8 mph 0.12 in Rain Rain
10:01 AM 60.8 °F 57.2 °F 88% 29.45 in 2.0 mi North 19.6 mph 28.8 mph 0.01 in Rain Rain
10:54 AM 62.1 °F 57.0 °F 84% 29.44 in 5.0 mi North 17.3 mph 25.3 mph 0.03 in   Haze
10:58 AM 62.6 °F 57.2 °F 82% 29.45 in 10.0 mi North 16.1 mph 25.3 mph N/A   Overcast
11:54 AM 62.1 °F 57.9 °F 86% 29.41 in 4.0 mi North 21.9 mph 28.8 mph 0.06 in Rain Rain
12:54 PM 63.0 °F 59.0 °F 87% 29.39 in 7.0 mi North 17.3 mph 31.1 mph 0.05 in Rain Light Rain
1:01 PM 62.6 °F 59.0 °F 88% 29.40 in 8.0 mi North 19.6 mph 31.1 mph 0.00 in Rain Light Rain
1:13 PM 62.6 °F 59.0 °F 88% 29.40 in 6.0 mi North 18.4 mph 28.8 mph 0.01 in Rain Light Rain
1:54 PM 63.0 °F 59.0 °F 87% 29.37 in 8.0 mi North 19.6 mph 26.5 mph 0.04 in Rain Light Rain
2:54 PM 62.1 °F 59.0 °F 90% 29.36 in 7.0 mi North 21.9 mph 31.1 mph 0.02 in Rain Light Rain
3:06 PM 60.8 °F 57.2 °F 88% 29.38 in 7.0 mi NNW 25.3 mph 32.2 mph 0.01 in Rain Light Rain
3:54 PM 57.0 °F 53.1 °F 87% 29.38 in 7.0 mi NW 24.2 mph 32.2 mph 0.05 in Rain Light Rain
4:01 PM 57.2 °F 53.6 °F 88% 29.38 in 7.0 mi NW 27.6 mph 36.8 mph 0.01 in Rain Light Rain
4:10 PM 57.2 °F 53.6 °F 88% 29.38 in 10.0 mi NNW 28.8 mph 36.8 mph 0.01 in Rain Light Rain
4:54 PM 57.0 °F 53.1 °F 87% 29.39 in 8.0 mi NW 25.3 mph 36.8 mph 0.01 in   Overcast
5:19 PM 57.2 °F 53.6 °F 88% 29.40 in 2.0 mi NW 25.3 mph 38.0 mph N/A   Overcast
5:27 PM 57.2 °F 53.6 °F 88% 29.40 in 1.8 mi NNW 26.5 mph 36.8 mph 0.00 in Rain Light Rain
5:54 PM 57.0 °F 54.0 °F 89% 29.39 in 2.0 mi NNW 27.6 mph 34.5 mph 0.01 in   Overcast
6:08 PM 57.2 °F 53.6 °F 88% 29.41 in 4.0 mi NNW 23.0 mph 36.8 mph N/A   Overcast
6:37 PM 57.2 °F 53.6 °F 88% 29.41 in 5.0 mi NW 25.3 mph 36.8 mph N/A   Overcast
6:54 PM 57.0 °F 53.1 °F 87% 29.41 in 10.0 mi NW 24.2 mph 38.0 mph N/A   Overcast
7:37 PM 57.2 °F 53.6 °F 88% 29.42 in 10.0 mi NW 24.2 mph 36.8 mph N/A   Overcast
7:54 PM 57.9 °F 52.0 °F 81% 29.41 in 10.0 mi NW 23.0 mph 34.5 mph N/A   Overcast
8:54 PM 57.9 °F 51.1 °F 78% 29.41 in 10.0 mi NW 26.5 mph 36.8 mph N/A   Overcast
9:54 PM 57.9 °F 50.0 °F 75% 29.42 in 10.0 mi NW 27.6 mph 34.5 mph N/A   Overcast
10:54 PM 57.9 °F 48.9 °F 72% 29.42 in 10.0 mi NW 21.9 mph 33.4 mph N/A   Overcast
11:54 PM 57.0 °F 48.9 °F 74% 29.41 in 10.0 mi NW 24.2 mph 35.7 mph N/A   Overcast